FW2418 Weather Reports


time (UTC)temp
C
wind
direction
speed
KPH
gust
KPH
rain 1hr
cm
rain 24hr
cm
rain mn
cm
humidity
%
barometer
mb
20260905040008 24 127 0.0 0.0 0.00 0.61 0.61 99 1012.7
20260905034905 24 127 0.0 0.0 0.00 0.61 0.61 99 1012.7
20260905033904 24 127 0.0 0.0 0.00 0.61 0.61 99 1012.7
20260905032903 23 127 0.0 1.6 0.00 0.61 0.61 98 1012.7
20260905031903 23 127 0.0 1.6 0.00 0.61 0.61 99 1012.7
20260905030902 23 127 0.0 1.6 0.00 0.61 0.61 98 1013.0
20260905025901 23 144 0.0 0.0 0.00 0.61 0.61 98 1013.0
20260905024829 23 143 0.0 0.0 0.00 0.61 0.61 98 1013.0
20260905023828 23 144 0.0 0.0 0.00 0.61 0.61 98 1013.0
20260905022756 23 144 0.0 1.6 0.00 0.61 0.61 98 1013.0
20260905021755 23 143 0.0 1.6 0.00 0.61 0.61 98 1013.0
20260905020754 23 142 1.6 3.2 0.03 0.61 0.61 98 1013.0
20260905015753 24 356 1.6 3.2 0.05 0.61 0.61 98 1013.0
20260905014753 24 30 1.6 3.2 0.10 0.61 0.61 98 1013.0
20260905013752 24 101 1.6 3.2 0.15 0.61 0.61 98 1013.0
20260905012720 24 85 0.0 1.6 0.20 0.61 0.61 98 1013.0
20260905011648 24 18 0.0 3.2 0.23 0.61 0.61 98 1012.7
20260905010616 24 50 1.6 3.2 0.25 0.58 0.58 98 1012.7
20260905005615 24 20 1.6 3.2 0.28 0.56 0.56 98 1012.7
20260905004614 24 66 1.6 3.2 0.25 0.51 0.51 98 1012.7
20260905003543 24 124 0.0 1.6 0.18 0.43 0.43 98 1012.3
20260905002542 24 124 0.0 0.0 0.18 0.41 0.41 98 1012.3
20260905001510 24 124 0.0 0.0 0.13 0.36 0.36 97 1012.3
20260905000509 24 128 0.0 0.0 0.10 0.33 0.33 97 1012.3
20260904235508 24 129 0.0 1.6 0.05 0.28 0.28 97 1012.6
20260904234507 24 148 1.6 1.6 0.03 0.25 0.25 97 1012.3
20260904233506 24 121 0.0 1.6 0.05 0.25 0.25 96 1012.3
20260904232506 24 169 0.0 4.8 0.05 0.23 0.23 96 1012.6
20260904231433 25 114 3.2 6.4 0.08 0.23 0.23 96 1013.0
20260904230433 25 220 1.6 6.4 0.08 0.23 0.23 97 1013.0
20260904225432 25 119 1.6 4.8 0.08 0.23 0.23 97 1013.0
20260904224431 25 110 1.6 1.6 0.10 0.23 0.23 97 1013.0
20260904223430 25 115 0.0 1.6 0.15 0.20 0.20 97 1013.0
20260904222429 25 94 1.6 1.6 0.18 0.18 0.18 96 1013.0
20260904221428 25 131 1.6 3.2 0.15 0.15 0.15 96 1012.7
20260904220427 25 120 1.6 4.8 0.15 0.15 0.15 95 1012.0
20260904215356 25 78 1.6 4.8 0.15 0.15 0.15 94 1011.6
20260904214355 26 103 1.6 8.0 0.13 0.13 0.13 93 1011.3
20260904213354 26 311 0.0 11.3 0.05 0.05 0.05 89 1011.3
20260904212353 27 278 3.2 14.5 0.00 0.00 0.00 81 1010.3
20260904211352 30 265 6.4 14.5 0.00 0.00 0.00 74 1011.0
20260904210352 32 197 3.2 8.0 0.00 0.00 0.00 75 1011.0
20260904205351 33 61 3.2 8.0 0.00 0.00 0.00 71 1010.7
20260904204350 33 132 0.0 8.0 0.00 0.00 0.00 61 1010.7
20260904203349 33 168 1.6 12.9 0.00 0.00 0.00 63 1010.7
20260904202348 34 175 6.4 12.9 0.00 0.00 0.00 61 1010.7
20260904201347 34 222 0.0 11.3 0.00 0.00 0.00 63 1010.7
20260904200346 35 237 1.6 11.3 0.00 0.00 0.00 61 1010.7
20260904195345 35 136 0.0 14.5 0.00 0.00 0.00 61 1011.0
20260904194242 35 206 1.6 14.5 0.00 0.00 0.00 59 1011.0
20260904193241 35 173 3.2 14.5 0.00 0.00 0.00 59 1011.0
20260904192240 35 182 3.2 12.9 0.00 0.00 0.00 59 1011.3
20260904191239 35 174 4.8 12.9 0.00 0.00 0.00 59 1011.3
20260904190238 36 177 3.2 12.9 0.00 0.00 0.00 58 1011.7
20260904185237 35 165 4.8 12.9 0.00 0.00 0.00 61 1011.7
20260904184236 35 238 1.6 14.5 0.00 0.00 0.00 60 1012.0
20260904183235 35 176 4.8 14.5 0.00 0.00 0.00 59 1012.4
20260904182204 35 230 1.6 11.3 0.00 0.00 0.00 61 1012.4
20260904181131 35 163 4.8 11.3 0.00 0.00 0.00 61 1012.4
20260904180059 34 210 1.6 6.4 0.00 0.00 0.00 62 1012.4
20260904175027 34 171 3.2 8.0 0.00 0.00 0.00 63 1012.7
20260904174026 33 168 3.2 14.5 0.00 0.00 0.00 65 1012.7
20260904173025 35 117 3.2 14.5 0.00 0.00 0.00 60 1012.7
20260904172024 35 172 3.2 12.9 0.00 0.00 0.00 62 1013.0
20260904171024 35 167 1.6 12.9 0.00 0.00 0.00 61 1013.0
20260904170023 34 207 3.2 8.0 0.00 0.00 0.00 65 1013.4
20260904165022 33 329 1.6 9.7 0.00 0.00 0.00 67 1013.4
20260904163949 33 172 3.2 11.3 0.00 0.00 0.00 66 1013.4
20260904162917 33 205 3.2 11.3 0.00 0.00 0.00 67 1013.4
20260904161917 33 166 4.8 9.7 0.00 0.00 0.00 70 1013.4
20260904160845 33 176 4.8 9.7 0.00 0.00 0.00 70 1013.7
20260904155813 33 242 1.6 14.5 0.00 0.00 0.00 69 1013.7
20260904154812 33 177 6.4 12.9 0.00 0.00 0.00 71 1013.7
20260904153811 32 141 3.2 9.7 0.00 0.00 0.00 73 1013.7
20260904152810 33 124 4.8 9.7 0.00 0.00 0.00 72 1013.7
20260904151810 32 177 3.2 9.7 0.00 0.00 0.00 72 1013.7
20260904150809 32 188 4.8 9.7 0.00 0.00 0.00 73 1013.7
20260904145737 32 138 3.2 8.0 0.00 0.00 0.00 73 1013.7
20260904144736 32 180 1.6 9.7 0.00 0.00 0.00 76 1013.7
20260904143735 31 153 3.2 9.7 0.00 0.00 0.00 78 1013.7
20260904142734 31 178 3.2 8.0 0.00 0.00 0.00 78 1013.7
20260904141702 31 180 1.6 4.8 0.00 0.00 0.00 80 1013.4
20260904140701 30 122 0.0 6.4 0.00 0.03 0.00 82 1013.4
20260904135700 30 267 1.6 6.4 0.00 0.05 0.00 83 1013.4
20260904134659 30 159 3.2 6.4 0.00 0.05 0.00 84 1013.4
20260904133627 30 124 1.6 4.8 0.00 0.05 0.00 86 1013.4
20260904132626 29 174 1.6 3.2 0.00 0.05 0.00 87 1013.4
20260904131626 28 122 1.6 3.2 0.00 0.05 0.00 88 1013.4
20260904130625 28 115 1.6 1.6 0.00 0.05 0.00 91 1013.4
20260904125624 28 162 0.0 1.6 0.00 0.05 0.00 93 1013.4
20260904124623 27 159 1.6 1.6 0.00 0.05 0.00 95 1013.4
20260904123622 26 124 0.0 0.0 0.00 0.05 0.00 100 1013.0
20260904122550 25 124 0.0 0.0 0.00 0.05 0.00 100 1013.0
20260904121549 24 124 0.0 0.0 0.00 0.05 0.00 100 1013.0
20260904120549 23 124 0.0 0.0 0.00 0.05 0.00 100 1013.0
20260904115548 23 126 0.0 0.0 0.00 0.05 0.00 99 1012.7
20260904114516 23 125 0.0 0.0 0.00 0.05 0.00 99 1013.0
20260904113515 23 126 0.0 0.0 0.00 0.05 0.00 99 1012.7
20260904112514 23 125 0.0 0.0 0.00 0.05 0.00 99 1012.7
20260904111514 23 125 0.0 0.0 0.00 0.05 0.00 99 1012.3
20260904110442 23 124 0.0 0.0 0.00 0.05 0.00 99 1012.3
20260904105441 23 124 0.0 0.0 0.00 0.05 0.00 99 1012.3
20260904104440 23 124 0.0 0.0 0.00 0.05 0.00 99 1012.0
20260904103439 23 124 0.0 0.0 0.00 0.05 0.00 99 1012.0
20260904102438 24 124 0.0 0.0 0.00 0.05 0.00 99 1012.0
20260904101437 24 124 0.0 0.0 0.00 0.05 0.00 99 1012.0
20260904100436 24 124 0.0 0.0 0.00 0.05 0.00 99 1011.7
20260904095435 24 124 0.0 0.0 0.00 0.05 0.00 99 1011.7
20260904094435 24 124 0.0 0.0 0.00 0.05 0.00 99 1011.7
20260904093434 24 124 0.0 0.0 0.00 0.05 0.00 99 1011.7
20260904092433 24 124 0.0 0.0 0.00 0.05 0.00 99 1011.7
20260904091432 24 124 0.0 0.0 0.00 0.05 0.00 99 1011.7
20260904090431 24 124 0.0 0.0 0.00 0.05 0.00 99 1011.7
20260904085431 24 124 0.0 0.0 0.00 0.05 0.00 99 1011.7
20260904084430 24 124 0.0 0.0 0.00 0.05 0.00 99 1011.7
20260904083429 24 124 0.0 0.0 0.00 0.05 0.00 99 1011.7
20260904082429 24 124 0.0 0.0 0.00 0.05 0.00 99 1011.7
20260904081428 24 124 0.0 0.0 0.00 0.05 0.00 99 1012.0
20260904080427 24 124 0.0 0.0 0.00 0.05 0.00 99 1011.7
20260904075426 24 124 0.0 0.0 0.00 0.05 0.00 99 1011.7
20260904074425 24 124 0.0 0.0 0.00 0.05 0.00 99 1011.7
20260904073424 24 124 0.0 0.0 0.00 0.05 0.00 99 1011.7
20260904072424 24 124 0.0 0.0 0.00 0.05 0.00 99 1011.7
20260904071423 24 124 0.0 0.0 0.00 0.05 0.00 99 1011.7
20260904070422 25 124 0.0 0.0 0.00 0.05 0.00 98 1011.7
20260904065421 25 124 0.0 0.0 0.00 0.05 0.00 98 1011.7
20260904064420 25 124 0.0 0.0 0.00 0.05 0.00 98 1011.7
20260904063420 25 124 0.0 0.0 0.00 0.05 0.00 98 1011.7
20260904062419 25 124 0.0 0.0 0.00 0.05 0.00 98 1011.7
20260904061418 25 124 0.0 0.0 0.00 0.05 0.00 98 1012.0
20260904060417 25 124 0.0 0.0 0.00 0.05 0.00 98 1012.0
20260904055416 25 124 0.0 0.0 0.00 0.05 0.00 98 1012.3
20260904054416 25 124 0.0 0.0 0.00 0.05 0.00 98 1012.3
20260904053415 25 124 0.0 0.0 0.00 0.05 0.00 98 1012.3
20260904052414 25 124 0.0 0.0 0.00 0.05 0.00 98 1012.3
20260904051342 25 124 0.0 0.0 0.00 0.05 0.00 98 1012.3
20260904050341 25 124 0.0 0.0 0.00 0.05 0.00 98 1012.3
20260904045341 25 124 0.0 0.0 0.00 0.05 0.00 97 1012.7
20260904044340 25 124 0.0 0.0 0.00 0.05 0.00 97 1012.7
20260904043307 25 124 0.0 0.0 0.00 0.05 0.00 97 1012.7
20260904042307 25 124 0.0 0.0 0.00 0.05 0.00 97 1012.7
20260904041306 26 124 0.0 0.0 0.00 0.05 0.00 97 1012.3